• In Belarus
  • List of Countries
  • For 7 days
  • Water Temperature
  • Satellite Maps
  • Weather Map
  • Weather Widgets
  • user-avatar
    Login

    Hourly Weather Solden

    Today, 23 November, Thursday

    Time Temperature Precipitation Wind Pressure Humidity
    00:00 -6°C° 0 mm 2 mps 579 mmHg 82%
    01:00 -6°C° 0 mm 2 mps 579 mmHg 83%
    02:00 -6°C° 0 mm 2 mps 579 mmHg 82%
    03:00 -6°C° 0 mm 2 mps 579 mmHg 82%
    04:00 -6°C° 0 mm 2 mps 578 mmHg 82%
    05:00 -6°C° 0 mm 2 mps 578 mmHg 81%
    06:00 -6°C° 0 mm 2 mps 578 mmHg 81%
    07:00 -7°C° 0 mm 2 mps 578 mmHg 80%
    08:00 -5°C° 0 mm 2 mps 579 mmHg 78%
    09:00 -3°C° 0 mm 2 mps 580 mmHg 76%
    10:00 0°C° 0 mm 1 mps 581 mmHg 74%
    11:00 +1°C° 0 mm 1 mps 581 mmHg 75%
    12:00 +2°C° 0 mm 1 mps 582 mmHg 75%
    13:00 +3°C° 0 mm 1 mps 582 mmHg 75%
    14:00 +2°C° 0 mm 1 mps 581 mmHg 77%
    15:00 +1°C° 0 mm 1 mps 581 mmHg 80%
    16:00 -1°C° 0 mm 1 mps 580 mmHg 82%
    17:00 -2°C° 0 mm 1 mps 580 mmHg 82%
    18:00 -2°C° 0 mm 1 mps 580 mmHg 83%
    19:00 -3°C° 0 mm 1 mps 580 mmHg 83%
    20:00 -4°C° 0 mm 1 mps 580 mmHg 81%
    21:00 -4°C° 0 mm 1 mps 580 mmHg 79%
    22:00 -4°C° 0 mm 1 mps 580 mmHg 77%
    23:00 -4°C° 0 mm 1 mps 580 mmHg 77%

    Tomorrow, 24 November, Friday

    Time Temperature Precipitation Wind Pressure Humidity
    00:00 -4°C° 0 mm 1 mps 580 mmHg 76%
    01:00 -4°C° 0 mm 1 mps 580 mmHg 76%
    02:00 -4°C° 0 mm 1 mps 580 mmHg 77%
    03:00 -6°C° 0 mm 1 mps 580 mmHg 78%
    04:00 -6°C° 0 mm 1 mps 580 mmHg 78%
    05:00 -7°C° 0 mm 2 mps 580 mmHg 79%
    06:00 -7°C° 0 mm 2 mps 580 mmHg 80%
    07:00 -7°C° 0 mm 2 mps 580 mmHg 81%
    08:00 -5°C° 0 mm 2 mps 581 mmHg 77%
    09:00 -4°C° 0 mm 2 mps 581 mmHg 74%
    10:00 0°C° 0 mm 1 mps 582 mmHg 71%
    11:00 -1°C° 0 mm 2 mps 582 mmHg 71%
    12:00 +1°C° 0 mm 2 mps 582 mmHg 71%
    13:00 +1°C° 0 mm 2 mps 582 mmHg 71%
    14:00 -1°C° 0 mm 2 mps 582 mmHg 74%
    15:00 -2°C° 0 mm 2 mps 581 mmHg 78%
    16:00 -1°C° 0 mm 1 mps 581 mmHg 82%
    17:00 -2°C° 0 mm 1 mps 580 mmHg 83%
    18:00 -2°C° 0 mm 1 mps 580 mmHg 85%
    19:00 -3°C° 0 mm 1 mps 580 mmHg 87%
    20:00 -3°C° 0 mm 1 mps 580 mmHg 87%
    21:00 -3°C° 0 mm 1 mps 580 mmHg 87%
    22:00 -3°C° 0 mm 1 mps 580 mmHg 87%
    23:00 -5°C° 0 mm 2 mps 580 mmHg 89%

    Day after tomorrow, 25 November, Saturday

    Time Temperature Precipitation Wind Pressure Humidity
    00:00 -5°C° 0 mm 2 mps 580 mmHg 90%
    01:00 -5°C° 0 mm 2 mps 580 mmHg 92%
    02:00 -5°C° 0.1 mm 2 mps 579 mmHg 92%
    03:00 -5°C° 0.1 mm 2 mps 579 mmHg 93%
    04:00 -5°C° 0.1 mm 2 mps 578 mmHg 93%
    05:00 -5°C° 0 mm 2 mps 578 mmHg 93%
    06:00 -5°C° 0 mm 2 mps 578 mmHg 93%
    07:00 -5°C° 0 mm 2 mps 577 mmHg 93%
    08:00 -4°C° 0.1 mm 2 mps 577 mmHg 91%
    09:00 -4°C° 0.1 mm 3 mps 577 mmHg 90%
    10:00 -2°C° 0.1 mm 3 mps 577 mmHg 88%
    11:00 -2°C° 0.6 mm 3 mps 577 mmHg 89%
    12:00 -2°C° 0.6 mm 3 mps 576 mmHg 90%
    13:00 -2°C° 0.6 mm 2 mps 576 mmHg 90%
    14:00 -2°C° 1.4 mm 2 mps 576 mmHg 92%
    15:00 -2°C° 1.4 mm 2 mps 575 mmHg 93%
    16:00 -1°C° 1.4 mm 1 mps 575 mmHg 94%
    17:00 -1°C° 1.1 mm 1 mps 575 mmHg 95%
    18:00 -4°C° 1.1 mm 2 mps 575 mmHg 95%
    19:00 -4°C° 1.1 mm 2 mps 575 mmHg 96%
    20:00 -5°C° 0.7 mm 2 mps 575 mmHg 95%
    21:00 -5°C° 0.7 mm 2 mps 576 mmHg 94%
    22:00 -6°C° 0.7 mm 2 mps 576 mmHg 93%
    23:00 -8°C° 0.2 mm 3 mps 576 mmHg 91%

    26 November, Sunday

    Time Temperature Precipitation Wind Pressure Humidity
    00:00 -9°C° 0.2 mm 3 mps 576 mmHg 89%
    01:00 -10°C° 0.2 mm 3 mps 576 mmHg 86%
    02:00 -10°C° 0.1 mm 3 mps 576 mmHg 86%
    03:00 -12°C° 0.1 mm 3 mps 576 mmHg 85%
    04:00 -13°C° 0.1 mm 3 mps 576 mmHg 85%
    05:00 -14°C° 0 mm 3 mps 576 mmHg 84%
    06:00 -15°C° 0 mm 3 mps 576 mmHg 83%
    07:00 -16°C° 0 mm 3 mps 576 mmHg 82%
    08:00 -15°C° 0 mm 3 mps 577 mmHg 77%
    09:00 -14°C° 0 mm 3 mps 577 mmHg 72%
    10:00 -15°C° 0 mm 4 mps 578 mmHg 67%
    11:00 -13°C° 0 mm 3 mps 579 mmHg 64%
    12:00 -12°C° 0 mm 3 mps 579 mmHg 61%
    13:00 -10°C° 0 mm 3 mps 580 mmHg 58%
    14:00 -12°C° 0 mm 3 mps 579 mmHg 62%
    15:00 -12°C° 0 mm 2 mps 579 mmHg 67%
    16:00 -13°C° 0 mm 2 mps 579 mmHg 71%
    17:00 -14°C° 0 mm 2 mps 579 mmHg 73%
    18:00 -15°C° 0 mm 2 mps 579 mmHg 76%
    19:00 -16°C° 0 mm 2 mps 578 mmHg 78%
    20:00 -17°C° 0 mm 2 mps 578 mmHg 78%
    21:00 -17°C° 0 mm 2 mps 579 mmHg 77%
    22:00 -17°C° 0 mm 2 mps 579 mmHg 76%
    23:00 -17°C° 0 mm 2 mps 579 mmHg 74%

    27 November, Monday

    Time Temperature Precipitation Wind Pressure Humidity
    00:00 -17°C° 0 mm 2 mps 579 mmHg 73%
    01:00 -17°C° 0 mm 2 mps 578 mmHg 72%
    02:00 -17°C° 0 mm 2 mps 578 mmHg 72%
    03:00 -17°C° 0 mm 2 mps 578 mmHg 72%
    04:00 -17°C° 0 mm 2 mps 578 mmHg 72%
    05:00 -17°C° 0 mm 2 mps 578 mmHg 72%
    06:00 -17°C° 0 mm 2 mps 578 mmHg 72%
    07:00 -17°C° 0 mm 2 mps 579 mmHg 72%
    08:00 -13°C° 0 mm 1 mps 579 mmHg 69%
    09:00 -11°C° 0 mm 1 mps 580 mmHg 66%
    10:00 -10°C° 0 mm 1 mps 581 mmHg 63%
    11:00 -8°C° 0 mm 1 mps 581 mmHg 61%
    12:00 -7°C° 0 mm 1 mps 582 mmHg 59%
    13:00 -6°C° 0 mm 1 mps 582 mmHg 56%
    14:00 -8°C° 0 mm 1 mps 581 mmHg 61%
    15:00 -9°C° 0 mm 1 mps 580 mmHg 66%
    16:00 -10°C° 0 mm 1 mps 579 mmHg 70%
    17:00 -11°C° 0 mm 1 mps 579 mmHg 72%
    18:00 -12°C° 0 mm 1 mps 578 mmHg 73%
    19:00 -13°C° 0 mm 1 mps 578 mmHg 74%
    20:00 -13°C° 0 mm 1 mps 577 mmHg 70%
    21:00 -13°C° 0 mm 1 mps 577 mmHg 67%
    22:00 -13°C° 0 mm 1 mps 577 mmHg 64%
    23:00 -13°C° 0 mm 1 mps 577 mmHg 63%

    28 November, Tuesday

    Time Temperature Precipitation Wind Pressure Humidity
    00:00 -13°C° 0 mm 1 mps 577 mmHg 62%
    01:00 -15°C° 0 mm 2 mps 577 mmHg 62%
    02:00 -15°C° 0 mm 2 mps 576 mmHg 62%
    03:00 -15°C° 0 mm 2 mps 576 mmHg 62%
    04:00 -15°C° 0 mm 2 mps 576 mmHg 62%
    05:00 -13°C° 0 mm 1 mps 576 mmHg 62%
    06:00 -13°C° 0 mm 1 mps 575 mmHg 61%
    07:00 -13°C° 0 mm 1 mps 575 mmHg 61%
    08:00 -11°C° 0 mm 1 mps 576 mmHg 60%
    09:00 -9°C° 0 mm 1 mps 576 mmHg 60%
    10:00 -8°C° 0 mm 1 mps 577 mmHg 59%
    11:00 -8°C° 0 mm 2 mps 577 mmHg 59%
    12:00 -7°C° 0 mm 2 mps 577 mmHg 59%
    13:00 -6°C° 0 mm 2 mps 577 mmHg 59%
    14:00 -8°C° 0 mm 2 mps 576 mmHg 65%
    15:00 -9°C° 0 mm 2 mps 575 mmHg 70%
    16:00 -10°C° 0 mm 2 mps 574 mmHg 76%
    17:00 -12°C° 0 mm 2 mps 574 mmHg 78%
    18:00 -13°C° 0 mm 2 mps 573 mmHg 80%
    19:00 -14°C° 0 mm 2 mps 573 mmHg 83%
    20:00 -14°C° 0 mm 2 mps 573 mmHg 83%
    21:00 -13°C° 0 mm 2 mps 573 mmHg 83%
    22:00 -13°C° 0 mm 2 mps 573 mmHg 83%
    23:00 -13°C° 0.1 mm 2 mps 573 mmHg 84%
    Show more